129P/Shoemaker-Levy 3 (2022)

Japanese version
Home page
Updated on May 19, 2019

---------------------------------------------------------------------

* Profile

* Pictures

* Orbital Elements

Epoch 2022 Dec. 7.0 TT = JDT 2459920.5
T 2022 Nov. 30.03517 TT                                 MPCW
q   3.9243819            (2000.0)            P               Q
n   0.11099429     Peri.  307.44515     -0.67298487     -0.73963874
a   4.2881400      Node   184.86211     +0.69617251     -0.63108137
e   0.0848289      Incl.    3.44226     +0.24987038     -0.23381795
P   8.88
From 797 observations 1996 Oct. 17-2018 Oct. 29, mean residual 0".8.
     Nongravitational parameters Y1 = +0.19, Y2 = -0.0283.

* Magnitudes Graph

        m1 = -1768.5 + 5 log d + 3000   log r(t + 1640)  [-1630,-1505]  (2018 June 14 - 2018 Oct. 17)
        m1 =     7.7 + 5 log d +   15.0 log r            [-1505,     ]  (2018 Oct. 17 -             )

---------------------------------------------------------------------

The orbital elements are published on M.P.E.C. 2019-J142.
The magnitudes graphs are made with Comet for Windows.

---------------------------------------------------------------------

Copyright(C) Seiichi Yoshida (comet@aerith.net). All rights reserved.